DW5686 Weather Reports


Display with metric or nautical units.
time (UTC)temp
F
wind
direction
speed
MPH
gust
MPH
rain 1hr
in
rain 24hr
in
rain mn
in
humidity
%
barometer
mb
20260906113503 71 20 2.0 4.0 0.00 0.00 0.00 91 1012.2
20260906113003 71 20 2.0 3.0 0.00 0.00 0.00 91 1012.2
20260906112504 71 20 2.0 6.0 0.00 0.00 0.00 91 1012.1
20260906112003 71 20 2.0 6.0 0.00 0.00 0.00 91 1012.3
20260906111525 70 11 3.0 6.0 0.00 0.00 0.00 92 1012.4
20260906111003 70 207 2.0 3.0 0.00 0.00 0.00 92 1012.1
20260906110503 70 207 0.0 2.0 0.00 0.00 0.00 92 1012.2
20260906110003 70 207 0.0 1.0 0.00 0.00 0.00 92 1012.2
20260906105504 70 207 0.0 2.0 0.00 0.00 0.00 92 1012.1
20260906105004 70 207 0.0 2.0 0.00 0.00 0.00 92 1011.9
20260906104503 70 207 0.0 2.0 0.00 0.00 0.00 92 1012.0
20260906104024 70 207 0.0 2.0 0.00 0.00 0.00 92 1012.0
20260906103504 70 207 1.0 2.0 0.00 0.00 0.00 92 1011.9
20260906103004 70 207 0.0 2.0 0.00 0.00 0.00 92 1011.9
20260906102504 70 207 1.0 2.0 0.00 0.00 0.00 92 1011.8
20260906102025 70 207 1.0 4.0 0.00 0.00 0.00 92 1011.7
20260906101504 70 207 2.0 4.0 0.00 0.00 0.00 92 1011.6
20260906101003 70 207 2.0 3.0 0.00 0.00 0.00 92 1011.6
20260906100504 70 207 2.0 3.0 0.00 0.00 0.00 92 1011.6
20260906100003 70 207 2.0 3.0 0.00 0.00 0.00 92 1011.7
20260906095503 70 0 0.0 0.0 0.00 0.00 0.00 92 1011.5
20260906095003 70 0 0.0 0.0 0.00 0.00 0.00 92 1011.5
20260906094504 70 0 0.0 1.0 0.00 0.00 0.00 92 1011.3
20260906094003 70 207 0.0 2.0 0.00 0.00 0.00 92 1011.3
20260906093503 71 207 1.0 2.0 0.00 0.00 0.00 92 1011.3
20260906093004 71 0 0.0 2.0 0.00 0.00 0.00 92 1011.3
20260906092524 70 207 1.0 2.0 0.00 0.00 0.00 92 1011.2
20260906092003 70 0 0.0 1.0 0.00 0.00 0.00 92 1011.2
20260906091524 70 0 0.0 0.0 0.00 0.00 0.00 92 1011.2
20260906091024 70 0 0.0 1.0 0.00 0.00 0.00 92 1011.2
20260906090504 70 0 0.0 2.0 0.00 0.00 0.00 92 1011.1
20260906090003 70 207 1.0 2.0 0.00 0.00 0.00 92 1011.2
20260906085503 71 207 0.0 2.0 0.00 0.00 0.00 92 1011.0
20260906085004 71 207 0.0 2.0 0.00 0.00 0.00 92 1011.2
20260906084504 71 207 0.0 1.0 0.00 0.00 0.00 91 1011.4
20260906084003 71 0 0.0 1.0 0.00 0.00 0.00 91 1011.3
20260906083504 71 0 0.0 4.0 0.00 0.00 0.00 92 1011.4
20260906083004 71 207 0.0 4.0 0.00 0.00 0.00 92 1011.3
20260906082503 71 207 1.0 3.0 0.00 0.00 0.00 91 1011.2
20260906082003 71 208 0.0 2.0 0.00 0.00 0.00 91 1011.0
20260906081503 71 208 0.0 2.0 0.00 0.00 0.00 91 1010.9
20260906081003 71 207 0.0 2.0 0.00 0.00 0.00 91 1010.9
20260906080503 71 207 2.0 2.0 0.00 0.00 0.00 91 1010.8
20260906080003 71 207 1.0 2.0 0.00 0.00 0.00 91 1010.8
20260906075503 71 207 0.0 2.0 0.00 0.00 0.00 91 1010.9
20260906075004 71 207 1.0 2.0 0.00 0.00 0.00 91 1010.9
20260906074503 71 207 0.0 2.0 0.00 0.00 0.00 91 1010.8
20260906074003 71 207 2.0 2.0 0.00 0.00 0.00 91 1010.8
20260906073503 71 0 0.0 1.0 0.00 0.00 0.00 91 1010.7
20260906073024 72 207 0.0 2.0 0.00 0.00 0.00 91 1010.7
20260906072503 72 0 0.0 2.0 0.00 0.00 0.00 91 1010.7
20260906072003 72 207 1.0 2.0 0.00 0.00 0.00 91 1010.7
20260906071502 72 207 2.0 2.0 0.00 0.00 0.00 91 1010.7
20260906071002 71 207 1.0 2.0 0.00 0.00 0.00 91 1010.7
20260906070502 71 0 0.0 1.0 0.00 0.00 0.00 91 1010.7
20260906070004 71 0 0.0 2.0 0.00 0.00 0.00 91 1010.7
20260906065502 71 207 0.0 2.0 0.00 0.00 0.00 91 1010.7
20260906065002 72 0 0.0 0.0 0.00 0.00 0.00 91 1010.8
20260906064523 72 0 0.0 0.0 0.00 0.00 0.00 91 1010.8
20260906064002 72 0 0.0 1.0 0.00 0.00 0.00 91 1010.9
20260906063524 72 207 0.0 2.0 0.00 0.00 0.00 91 1011.0
20260906063024 72 207 0.0 2.0 0.00 0.00 0.00 91 1011.1
20260906062502 72 207 0.0 2.0 0.00 0.00 0.00 89 1011.2
20260906062024 72 0 0.0 1.0 0.00 0.00 0.00 89 1011.2
20260906061524 72 207 0.0 3.0 0.00 0.00 0.00 89 1011.4
20260906061002 72 207 2.0 4.0 0.00 0.00 0.00 91 1011.5
20260906060503 72 202 2.0 4.0 0.00 0.00 0.00 91 1011.6
20260906060002 72 42 1.0 4.0 0.00 0.00 0.00 91 1011.4
20260906055503 72 42 0.0 4.0 0.00 0.00 0.00 91 1011.5
20260906055002 72 185 1.0 2.0 0.00 0.00 0.00 91 1011.6
20260906054524 72 0 0.0 4.0 0.00 0.00 0.00 89 1011.7
20260906054003 72 185 1.0 4.0 0.00 0.00 0.00 89 1011.7
20260906053502 72 185 1.0 2.0 0.00 0.00 0.00 89 1011.9
20260906053002 72 185 0.0 1.0 0.00 0.00 0.00 89 1011.8
20260906052502 72 0 0.0 2.0 0.00 0.00 0.00 89 1011.9
20260906052002 72 0 0.0 2.0 0.00 0.00 0.00 89 1012.1
20260906051523 72 185 1.0 2.0 0.00 0.00 0.00 89 1012.1
20260906051002 72 185 1.0 2.0 0.00 0.00 0.00 89 1012.2
20260906050504 72 0 0.0 2.0 0.00 0.00 0.00 89 1012.2
20260906050003 72 185 0.0 2.0 0.00 0.00 0.00 89 1012.2
20260906045502 72 185 0.0 1.0 0.00 0.00 0.00 89 1012.0
20260906045003 72 0 0.0 0.0 0.00 0.00 0.00 88 1012.0
20260906044502 72 0 0.0 1.0 0.00 0.00 0.00 88 1012.1
20260906044023 72 185 0.0 2.0 0.00 0.00 0.00 88 1012.2
20260906043503 73 185 1.0 3.0 0.00 0.00 0.00 87 1012.3
20260906043002 73 185 0.0 5.0 0.00 0.00 0.00 87 1012.4
20260906042502 73 186 2.0 5.0 0.00 0.00 0.00 87 1012.4
20260906042003 73 225 1.0 2.0 0.00 0.00 0.00 87 1012.5
20260906041503 73 225 2.0 3.0 0.00 0.00 0.00 87 1012.5
20260906041024 73 225 1.0 3.0 0.00 0.00 0.00 87 1012.5
20260906040502 73 227 2.0 3.0 0.00 0.00 0.00 87 1012.4
20260906040024 73 231 1.0 2.0 0.00 0.00 0.00 87 1012.4
20260906035523 73 231 1.0 5.0 0.00 0.00 0.00 87 1012.4
20260906035003 73 231 1.0 5.0 0.00 0.00 0.00 87 1012.4
20260906034502 73 231 0.0 2.0 0.00 0.00 0.00 87 1012.6
20260906034024 73 231 0.0 3.0 0.00 0.00 0.00 86 1012.5
20260906033503 73 231 1.0 3.0 0.00 0.00 0.00 86 1012.5
20260906033003 73 231 2.0 2.0 0.00 0.00 0.00 86 1012.6
20260906032502 73 231 0.0 3.0 0.00 0.00 0.00 86 1012.6
20260906032024 73 231 1.0 5.0 0.00 0.00 0.00 86 1012.5
20260906031503 73 231 1.0 5.0 0.00 0.00 0.00 86 1012.6
20260906031002 74 235 1.0 2.0 0.00 0.00 0.00 86 1012.5
20260906030503 74 235 1.0 5.0 0.00 0.00 0.00 84 1012.5
20260906030004 74 235 1.0 7.0 0.00 0.00 0.00 84 1012.5
20260906025503 74 242 2.0 7.0 0.00 0.00 0.00 84 1012.5
20260906025003 74 233 3.0 7.0 0.00 0.00 0.00 84 1012.4
20260906024502 74 241 2.0 5.0 0.00 0.00 0.00 84 1012.2
20260906024025 74 246 2.0 5.0 0.00 0.00 0.00 84 1012.3
20260906023503 74 256 2.0 4.0 0.00 0.00 0.00 84 1012.3
20260906023003 74 257 0.0 2.0 0.00 0.00 0.00 84 1012.2
20260906022502 74 257 0.0 2.0 0.00 0.00 0.00 83 1012.2
20260906022002 74 257 1.0 2.0 0.00 0.00 0.00 82 1012.2
20260906021502 74 257 1.0 2.0 0.00 0.00 0.00 82 1012.2
20260906021003 75 257 1.0 3.0 0.00 0.00 0.00 81 1012.1
20260906020503 75 257 1.0 6.0 0.00 0.00 0.00 81 1012.1
20260906020002 75 167 2.0 6.0 0.00 0.00 0.00 81 1012.2
20260906015502 75 155 2.0 4.0 0.00 0.00 0.00 81 1012.2
20260906015002 75 155 2.0 6.0 0.00 0.00 0.00 81 1012.3
20260906014502 75 172 3.0 7.0 0.00 0.00 0.00 81 1012.2
20260906014003 75 174 3.0 7.0 0.00 0.00 0.00 81 1012.1
20260906013503 75 216 1.0 2.0 0.00 0.00 0.00 81 1012.0
20260906013002 75 216 0.0 1.0 0.00 0.00 0.00 81 1012.0
20260906012502 75 216 0.0 1.0 0.00 0.00 0.00 79 1012.0
20260906012003 75 0 0.0 0.0 0.00 0.00 0.00 79 1011.8
20260906011502 75 0 0.0 2.0 0.00 0.00 0.00 78 1011.9
20260906011003 76 216 0.0 2.0 0.00 0.00 0.00 78 1011.9
20260906010502 76 216 1.0 2.0 0.00 0.00 0.00 78 1011.8
20260906010002 76 216 1.0 2.0 0.00 0.00 0.00 78 1011.6
20260906005502 76 0 0.0 2.0 0.00 0.00 0.00 77 1011.7
20260906005002 76 0 0.0 2.0 0.00 0.00 0.00 77 1011.7
20260906004502 76 216 1.0 2.0 0.00 0.00 0.00 76 1011.8
20260906004003 76 216 1.0 1.0 0.00 0.00 0.00 76 1011.7
20260906003503 77 216 0.0 2.0 0.00 0.00 0.00 75 1011.6
20260906003003 77 216 1.0 2.0 0.00 0.00 0.00 75 1011.6
20260906002503 77 0 0.0 2.0 0.00 0.00 0.00 74 1011.7
20260906002002 77 216 1.0 2.0 0.00 0.00 0.00 74 1011.7
20260906001524 78 216 0.0 3.0 0.00 0.00 0.00 72 1011.5
20260906001003 78 216 1.0 3.0 0.00 0.00 0.00 71 1011.5
20260906000502 78 216 1.0 3.0 0.00 0.00 0.00 72 1011.3
20260906000002 78 216 1.0 2.0 0.00 0.00 0.00 71 1011.2
20260905235524 79 216 1.0 4.0 0.00 0.00 0.00 70 1011.0
20260905235003 79 59 2.0 4.0 0.00 0.00 0.00 69 1011.0
20260905234502 79 32 1.0 3.0 0.00 0.00 0.00 69 1010.9
20260905234002 79 32 1.0 3.0 0.00 0.00 0.00 68 1010.7
20260905233502 80 32 0.0 2.0 0.00 0.00 0.00 67 1010.7
20260905233024 80 32 0.0 4.0 0.00 0.00 0.00 67 1010.5
20260905232503 80 32 0.0 5.0 0.00 0.00 0.00 65 1010.5
20260905232003 80 25 1.0 5.0 0.00 0.00 0.00 64 1010.6
20260905231503 81 43 0.0 2.0 0.00 0.00 0.00 63 1010.7
20260905231003 81 43 0.0 2.0 0.00 0.00 0.00 62 1010.6
20260905230503 81 43 0.0 2.0 0.00 0.00 0.00 62 1010.6
20260905230024 81 43 1.0 5.0 0.00 0.00 0.00 63 1010.7
20260905225502 82 358 2.0 7.0 0.00 0.00 0.00 63 1010.8
20260905225003 82 2 4.0 7.0 0.00 0.00 0.00 62 1010.7
20260905224503 82 202 0.0 2.0 0.00 0.00 0.00 61 1010.6
20260905224002 82 194 1.0 3.0 0.00 0.00 0.00 61 1010.6
20260905223504 82 342 1.0 3.0 0.00 0.00 0.00 60 1010.5
20260905223002 82 27 1.0 3.0 0.00 0.00 0.00 61 1010.5
20260905222502 82 6 1.0 4.0 0.00 0.00 0.00 60 1010.6
20260905222025 82 5 2.0 4.0 0.00 0.00 0.00 60 1010.6
20260905221524 82 37 1.0 2.0 0.00 0.00 0.00 59 1010.7
20260905221003 82 37 0.0 2.0 0.00 0.00 0.00 60 1010.6
20260905220503 82 37 1.0 2.0 0.00 0.00 0.00 60 1010.7
20260905220004 82 37 1.0 4.0 0.00 0.00 0.00 61 1010.7
20260905215503 83 124 1.0 5.0 0.00 0.00 0.00 61 1010.8
20260905215025 83 225 2.0 5.0 0.00 0.00 0.00 62 1010.9
20260905214504 82 240 2.0 4.0 0.00 0.00 0.00 62 1010.8
20260905214002 83 213 2.0 3.0 0.00 0.00 0.00 63 1011.0
20260905213503 82 220 2.0 4.0 0.00 0.00 0.00 65 1010.9
20260905213002 82 237 2.0 4.0 0.00 0.00 0.00 63 1011.0
20260905212503 81 35 2.0 3.0 0.00 0.00 0.00 67 1011.0
20260905212024 81 116 2.0 3.0 0.00 0.00 0.00 69 1011.2
20260905211503 81 168 1.0 2.0 0.00 0.00 0.00 70 1011.4
20260905211002 81 168 1.0 3.0 0.00 0.00 0.00 71 1011.7
20260905210525 80 163 2.0 3.0 0.00 0.00 0.00 71 1011.6
20260905210003 80 330 2.0 3.0 0.00 0.00 0.00 69 1011.7
20260905205503 80 356 0.0 4.0 0.00 0.00 0.00 70 1011.7
20260905205003 80 165 1.0 10.0 0.00 0.00 0.00 71 1011.6
20260905204503 80 314 4.0 10.0 0.00 0.00 0.00 72 1011.4
20260905204003 80 210 1.0 9.0 0.00 0.00 0.00 72 1011.6
20260905203502 81 212 3.0 9.0 0.00 0.00 0.00 71 1011.9
20260905203003 81 203 3.0 7.0 0.00 0.00 0.00 71 1011.5
20260905202503 82 213 3.0 7.0 0.00 0.00 0.00 69 1011.4
20260905202003 83 222 1.0 7.0 0.00 0.00 0.00 67 1011.2
20260905201502 83 208 3.0 7.0 0.00 0.00 0.00 64 1011.2
20260905201004 83 336 2.0 13.0 0.00 0.00 0.00 63 1011.3
20260905200523 84 350 4.0 13.0 0.00 0.00 0.00 62 1011.3
20260905200003 84 36 3.0 12.0 0.00 0.00 0.00 62 1011.7
20260905195503 84 13 6.0 14.0 0.00 0.00 0.00 60 1011.9
20260905195004 84 22 6.0 16.0 0.00 0.00 0.00 59 1012.2
20260905194503 85 23 9.0 16.0 0.00 0.00 0.00 57 1012.1
20260905194003 86 360 3.0 7.0 0.00 0.00 0.00 61 1011.6
20260905193523 87 223 2.0 4.0 0.00 0.00 0.00 61 1011.2
20260905193003 88 293 1.0 7.0 0.00 0.00 0.00 58 1010.6
20260905192504 90 332 3.0 7.0 0.00 0.00 0.00 57 1010.5
20260905192003 91 359 2.0 8.0 0.00 0.00 0.00 52 1010.6
20260905191504 92 217 2.0 8.0 0.00 0.00 0.00 49 1010.5
20260905191024 93 191 1.0 5.0 0.00 0.00 0.00 45 1010.5
20260905190502 94 253 2.0 8.0 0.00 0.00 0.00 45 1010.3
20260905190004 94 1 2.0 11.0 0.00 0.00 0.00 45 1010.2
20260905185503 95 18 7.0 11.0 0.00 0.00 0.00 44 1010.6
20260905185025 95 11 5.0 10.0 0.00 0.00 0.00 44 1010.7
20260905184503 95 335 2.0 11.0 0.00 0.00 0.00 44 1011.0
20260905184004 96 320 3.0 11.0 0.00 0.00 0.00 43 1011.0
20260905183504 96 347 3.0 10.0 0.00 0.00 0.00 42 1010.8
20260905183003 96 205 3.0 10.0 0.00 0.00 0.00 43 1010.9
20260905182503 95 148 1.0 7.0 0.00 0.00 0.00 44 1011.3
20260905182003 95 344 2.0 7.0 0.00 0.00 0.00 44 1011.2
20260905181523 96 360 3.0 11.0 0.00 0.00 0.00 42 1011.3
20260905181003 97 312 3.0 11.0 0.00 0.00 0.00 44 1011.4
20260905180503 97 249 2.0 7.0 0.00 0.00 0.00 44 1011.4
20260905180004 96 307 1.0 12.0 0.00 0.00 0.00 45 1011.5
20260905175503 96 229 2.0 12.0 0.00 0.00 0.00 44 1011.8
20260905175003 95 259 3.0 7.0 0.00 0.00 0.00 43 1011.9
20260905174525 96 8 2.0 6.0 0.00 0.00 0.00 45 1011.9
20260905174003 96 216 2.0 6.0 0.00 0.00 0.00 44 1012.0
20260905173524 95 353 2.0 7.0 0.00 0.00 0.00 44 1012.1
20260905173004 95 346 2.0 9.0 0.00 0.00 0.00 45 1012.3
20260905172503 96 27 6.0 9.0 0.00 0.00 0.00 44 1012.4
20260905172004 95 30 2.0 9.0 0.00 0.00 0.00 48 1012.4
20260905171504 95 14 6.0 9.0 0.00 0.00 0.00 48 1012.6
20260905171004 94 17 1.0 7.0 0.00 0.00 0.00 49 1012.7
20260905170504 94 181 2.0 8.0 0.00 0.00 0.00 49 1012.7
20260905170003 94 184 3.0 8.0 0.00 0.00 0.00 49 1012.7
20260905165503 95 193 5.0 7.0 0.00 0.00 0.00 47 1012.8
20260905165003 96 205 5.0 7.0 0.00 0.00 0.00 48 1012.9
20260905164503 95 230 2.0 7.0 0.00 0.00 0.00 47 1013.1
20260905164003 96 7 4.0 7.0 0.00 0.00 0.00 48 1013.1
20260905163524 96 219 1.0 4.0 0.00 0.00 0.00 51 1013.1
20260905163004 95 189 2.0 7.0 0.00 0.00 0.00 50 1013.2
20260905162503 94 127 2.0 7.0 0.00 0.00 0.00 50 1013.3
20260905162025 94 26 2.0 5.0 0.00 0.00 0.00 55 1013.3
20260905161503 94 249 2.0 6.0 0.00 0.00 0.00 53 1013.3
20260905161003 93 208 2.0 6.0 0.00 0.00 0.00 53 1013.5
20260905160503 93 197 4.0 7.0 0.00 0.00 0.00 56 1013.5
20260905160004 93 230 3.0 7.0 0.00 0.00 0.00 55 1013.4
20260905155524 92 179 3.0 7.0 0.00 0.00 0.00 58 1013.5
20260905155003 92 199 4.0 6.0 0.00 0.00 0.00 57 1013.6
20260905154525 91 214 2.0 6.0 0.00 0.00 0.00 58 1013.6
20260905154003 92 201 3.0 6.0 0.00 0.00 0.00 58 1013.5
20260905153504 92 222 2.0 5.0 0.00 0.00 0.00 60 1013.5
20260905153003 91 203 3.0 6.0 0.00 0.00 0.00 58 1013.5
20260905152503 91 214 2.0 6.0 0.00 0.00 0.00 61 1013.6
20260905152003 90 168 2.0 6.0 0.00 0.00 0.00 62 1013.6
20260905151503 90 255 2.0 6.0 0.00 0.00 0.00 61 1013.6
20260905151003 90 246 2.0 6.0 0.00 0.00 0.00 61 1013.5
20260905150504 90 218 2.0 7.0 0.00 0.00 0.00 61 1013.6
20260905150004 90 206 3.0 7.0 0.00 0.00 0.00 63 1013.5
20260905145524 89 221 1.0 6.0 0.00 0.00 0.00 64 1013.5
20260905145024 89 216 3.0 6.0 0.00 0.00 0.00 63 1013.6
20260905144504 88 236 2.0 5.0 0.00 0.00 0.00 63 1013.6
20260905144025 88 198 2.0 5.0 0.00 0.00 0.00 64 1013.7
20260905143503 87 197 2.0 6.0 0.00 0.00 0.00 65 1013.6
20260905143003 87 220 2.0 6.0 0.00 0.00 0.00 68 1013.7
20260905142503 87 185 2.0 5.0 0.00 0.00 0.00 68 1013.7
20260905142004 86 210 2.0 7.0 0.00 0.00 0.00 69 1013.6
20260905141504 85 184 2.0 7.0 0.00 0.00 0.00 70 1013.7
20260905141003 85 214 2.0 7.0 0.00 0.00 0.00 70 1013.7
20260905140504 85 192 4.0 7.0 0.00 0.00 0.00 71 1013.7
20260905140003 85 228 2.0 6.0 0.00 0.00 0.00 70 1013.7
20260905135525 84 204 3.0 6.0 0.00 0.00 0.00 71 1013.6
20260905135004 84 152 2.0 6.0 0.00 0.00 0.00 74 1013.7
20260905134504 83 156 4.0 7.0 0.00 0.00 0.00 74 1013.7
20260905134004 83 177 5.0 7.0 0.00 0.00 0.00 75 1013.7
20260905133504 82 169 3.0 7.0 0.00 0.00 0.00 75 1013.8
20260905133004 82 203 2.0 7.0 0.00 0.00 0.00 77 1013.8
20260905132504 81 247 2.0 5.0 0.00 0.00 0.00 76 1013.8
20260905132024 81 241 3.0 7.0 0.00 0.00 0.00 77 1013.9
20260905131525 81 213 4.0 7.0 0.00 0.00 0.00 76 1014.0
20260905131004 81 238 2.0 5.0 0.00 0.00 0.00 77 1014.0
20260905130525 80 150 2.0 6.0 0.00 0.00 0.00 78 1014.0
20260905130003 80 186 3.0 6.0 0.00 0.00 0.00 79 1014.1
20260905125503 79 198 2.0 7.0 0.00 0.00 0.00 81 1014.0
20260905125003 78 211 2.0 7.0 0.00 0.00 0.00 81 1014.0
20260905124504 78 223 3.0 6.0 0.00 0.00 0.00 82 1014.1
20260905124003 78 191 2.0 6.0 0.00 0.00 0.00 83 1014.0
20260905123503 77 207 3.0 7.0 0.00 0.00 0.00 83 1014.0
20260905123003 77 211 3.0 7.0 0.00 0.00 0.00 83 1014.0
20260905122504 77 196 3.0 7.0 0.00 0.00 0.00 84 1013.9
20260905122003 77 230 3.0 6.0 0.00 0.00 0.00 84 1014.0
20260905121503 76 200 2.0 6.0 0.00 0.00 0.00 86 1013.9
20260905121003 76 192 2.0 6.0 0.00 0.00 0.00 86 1014.0
20260905120503 76 216 2.0 5.0 0.00 0.00 0.00 86 1014.0
20260905120004 76 231 2.0 6.0 0.00 0.00 0.00 86 1014.0
20260905115504 75 205 3.0 6.0 0.00 0.00 0.00 87 1014.0
20260905115004 75 207 2.0 4.0 0.00 0.00 0.00 87 1013.9
20260905114504 75 207 1.0 4.0 0.00 0.00 0.00 88 1013.9
20260905114004 75 207 2.0 4.0 0.00 0.00 0.00 88 1013.8